Weather History for Glens Falls, NY

Change the Weather History Date:

Wednesday, July 24, 2013

  Actual Average Record
Temperature  
Mean Temperature 66 °F 69 °F  
Max Temperature 77 °F 81 °F 92 °F (1963)
Min Temperature 54 °F 57 °F 43 °F (1985)
Degree Days  
Heating Degree Days 0 1  
Month to date heating degree days 0 24  
Since 1 June heating degree days 89 114  
Since 1 July heating degree days 0 24  
Cooling Degree Days 1 5  
Month to date cooling degree days 248 112  
Year to date cooling degree days 381 193  
Since 1 June cooling degree days 348 181  
Growing Degree Days 18 (Base 50)    
Moisture  
Dew Point 59 °F    
Average Humidity 68    
Maximum Humidity 93    
Minimum Humidity 43    
Precipitation  
Precipitation T in 0.14 in 0.98 in (1975)
Month to date precipitation 4.70 3.13  
Year to date precipitation 22.32 21.17  
Sea Level Pressure  
Sea Level Pressure 29.73 in    
Wind  
Wind Speed 7 mph (NW)    
Max Wind Speed 18 mph    
Max Gust Speed 24 mph    
Visibility 8 miles    
Events Fog    
T = Trace of Precipitation, MM = Missing Value Source: NWS Daily Summary

Daily Weather History Graph

Daily Weather History Graph

Search for Another Location

Airport:

Trip Planner

Search our weather history database for the weather conditions in past years. The results will help you decide how hot, cold, wet, or windy it might be!

Date:

Astronomy

Jul. 24, 2013 Rise Set
Actual Time 5:36 AM EDT 8:24 PM EDT
Civil Twilight 5:02 AM EDT 8:58 PM EDT
Nautical Twilight 4:20 AM EDT 9:40 PM EDT
Astronomical Twilight 3:31 AM EDT 10:28 PM EDT
Moon 9:22 PM EDT (7/24) 7:58 AM EDT (7/24)
Length of Visible Light 15h 55m
Length of Day
14h 48m
Waning Gibbous, 95% of the Moon is Illuminated
Jul 24
Waning Gibbous
Jul 29
Last Quarter
Aug 6
New
Aug 14
First Quarter
Aug 20
Full

Hourly Weather History & Observations

Time (EDT) Temp. Dew Point Humidity Pressure Visibility Wind Dir Wind Speed Gust Speed Precip Events Conditions
12:14 AM 66.2 °F 66.2 °F 100% 29.60 in 1.5 mi Calm Calm - N/A   Clear
12:22 AM 66.2 °F 64.4 °F 94% 29.60 in 0.5 mi Calm Calm - N/A Fog Fog
12:29 AM 66.2 °F 66.2 °F 100% 29.60 in 2.0 mi Calm Calm - N/A   Partly Cloudy
12:36 AM 68.0 °F 66.2 °F 94% 29.60 in 10.0 mi Variable 3.5 mph - N/A   Scattered Clouds
12:53 AM 68.0 °F 66.9 °F 96% 29.60 in 10.0 mi Calm Calm - N/A   Partly Cloudy
1:53 AM 68.0 °F 66.9 °F 96% 29.60 in 7.0 mi Calm Calm - N/A   Mostly Cloudy
2:11 AM 66.2 °F 66.2 °F 100% 29.59 in 1.5 mi Calm Calm - N/A   Partly Cloudy
2:19 AM 66.2 °F 66.2 °F 100% 29.59 in 1.0 mi Calm Calm - N/A   Partly Cloudy
2:29 AM 66.2 °F 66.2 °F 100% 29.59 in 8.0 mi Calm Calm - N/A   Partly Cloudy
2:53 AM 66.0 °F 64.9 °F 96% 29.60 in 3.0 mi Calm Calm - N/A   Partly Cloudy
3:53 AM 68.0 °F 66.0 °F 93% 29.60 in 7.0 mi SSW 5.8 mph - N/A   Mostly Cloudy
4:53 AM 68.0 °F 66.9 °F 96% 29.60 in 7.0 mi Calm Calm - N/A   Overcast
5:53 AM 68.0 °F 66.9 °F 96% 29.61 in 6.0 mi South 3.5 mph - 0.00 in   Overcast
6:53 AM 68.0 °F 66.9 °F 96% 29.63 in 5.0 mi SSW 4.6 mph - N/A   Overcast
7:53 AM 70.0 °F 64.0 °F 81% 29.66 in 10.0 mi WSW 5.8 mph - N/A   Overcast
8:53 AM 73.0 °F 62.1 °F 68% 29.69 in 10.0 mi WSW 5.8 mph - N/A   Overcast
9:53 AM 73.0 °F 60.1 °F 64% 29.72 in 10.0 mi Variable 3.5 mph - N/A   Overcast
10:53 AM 73.0 °F 57.0 °F 57% 29.74 in 10.0 mi WSW 6.9 mph - N/A   Mostly Cloudy
11:53 AM 75.9 °F 53.1 °F 45% 29.76 in 10.0 mi WNW 10.4 mph - N/A   Mostly Cloudy
12:53 PM 77.0 °F 53.1 °F 43% 29.76 in 10.0 mi NW 11.5 mph - N/A   Scattered Clouds
1:53 PM 73.0 °F 55.9 °F 55% 29.78 in 10.0 mi NNW 11.5 mph - N/A   Overcast
2:53 PM 72.0 °F 55.0 °F 55% 29.80 in 10.0 mi NNW 13.8 mph 21.9 mph N/A   Overcast
3:53 PM 70.0 °F 54.0 °F 57% 29.82 in 10.0 mi North 15.0 mph 24.2 mph N/A   Overcast
4:53 PM 70.0 °F 51.1 °F 51% 29.85 in 10.0 mi NNW 12.7 mph 23.0 mph N/A   Scattered Clouds
5:53 PM 68.0 °F 51.1 °F 55% 29.88 in 10.0 mi NNW 12.7 mph 21.9 mph N/A   Clear
6:53 PM 66.9 °F 50.0 °F 54% 29.90 in 10.0 mi NNW 9.2 mph - N/A   Clear
7:53 PM 64.0 °F 48.9 °F 58% 29.94 in 10.0 mi North 8.1 mph - N/A   Overcast
8:53 PM 63.0 °F 50.0 °F 63% 29.97 in 10.0 mi North 6.9 mph - N/A   Overcast
9:53 PM 62.1 °F 48.0 °F 60% 30.01 in 10.0 mi NNE 8.1 mph - N/A   Overcast
10:53 PM 59.0 °F 48.0 °F 67% 30.02 in 10.0 mi NNE 10.4 mph - N/A   Scattered Clouds
11:53 PM 55.9 °F 48.0 °F 75% 30.04 in 10.0 mi North 4.6 mph - N/A   Clear